Regional Weather Roundup
Issued by NWS

Home | Current Version | Previous Version | Graphics & Text | Print | Product List | Glossary On
Versions: 1 2 3 4 5 6 7 8 9 10 11 12 13 14 15 16 17 18 19 20 21 22 23 24 25 26 27 28 29 30 31 32 33 34 35 36 37 38 39 40 41 42 43 44 45 46 47 48 49 50
000
ASUS43 KOAX 220510
RWRNE

WEATHER ROUNDUP FOR NEBRASKA
NATIONAL WEATHER SERVICE OMAHA NE
1200 AM CDT TUE JUL 22 2014

NOTES: SATELLITE DATA IS BEING USED TO AUGMENT CLOUD COVER ABOVE
       12000 FEET.
       "FAIR" INDICATES FEW OR NO CLOUDS BELOW 12,000 FEET WITH NO
       SIGNIFICANT WEATHER AND/OR OBSTRUCTIONS TO VISIBILITY.

  * THESE STATIONS DO NOT REPORT WEATHER SUCH AS RAIN...SNOW OR FOG.

NEZ001>004-019>022-054>056-220600-
NEBRASKA PANHANDLE

CITY           SKY/WX    TMP DP  RH WIND       PRES   REMARKS
SCOTTSBLUFF    PTCLDY    71  58  63 SE3       30.05R
ALLIANCE       CLEAR     72  48  42 S7        30.03R
CHADRON        PTCLDY    83  52  34 NE15      29.99R
KIMBALL        PTCLDY    73  48  41 SE7       30.13R
SIDNEY         PTCLDY    77  49  37 SE14      30.10S
$$

NEZ057>060-069>072-079>082-220600-
SOUTHWEST NEBRASKA

CITY           SKY/WX    TMP DP  RH WIND       PRES   REMARKS
NORTH PLATTE   MOCLDY    81  57  43 S8        29.99F
IMPERIAL       CLEAR     79  60  52 S6        30.04S
LEXINGTON      PTCLDY    76  67  73 S8        29.98R
MCCOOK         PTCLDY    76  63  64 S7        30.02R
OGALLALA       MOCLDY    73  59  61 E5        30.05R
$$

NEZ005>010-023>029-035>040-094-220600-
NORTH CENTRAL NEBRASKA

CITY           SKY/WX    TMP DP  RH WIND       PRES   REMARKS
VALENTINE      MOCLDY    86  57  37 NE7       29.93R
AINSWORTH      MOCLDY    80  57  46 S8        29.92R
BROKEN BOW     PTCLDY    78  64  61 SW9       29.96R
O`NEILL        CLEAR     76  68  74 SW9       29.89R
THEDFORD       PTCLDY    77  55  45 CALM      29.98R
$$

NEZ041-046>049-061>064-073>077-083>087-220600-
SOUTH CENTRAL NEBRASKA

CITY           SKY/WX    TMP DP  RH WIND       PRES   REMARKS
GRAND ISLAND   MOCLDY    86  73  65 S18       29.93R HX  93
AURORA         CLOUDY    84  74  70 SW10G18   29.94R HX  91
HASTINGS       CLOUDY    85  69  58 SW9       29.96R
HEBRON         MOCLDY    86  70  57 SW9       29.94R HX  90
HOLDREGE       MOCLDY    83  71  66 S7        29.98S
KEARNEY *      MOCLDY    82  73  74 S10       29.97R
YORK           CLOUDY    84  73  70 S13       29.92S HX  91
$$

NEZ011>018-030>034-042>045-220600-
NORTHEAST NEBRASKA

CITY           SKY/WX    TMP DP  RH WIND       PRES   REMARKS
NORFOLK        PTCLDY    86  74  67 SW16      29.86R HX  94
ALBION         MOCLDY    79  71  75 CALM      29.90R
BLAIR          MOCLDY    85  73  67 S13       29.87S HX  92
COLUMBUS *     CLOUDY    90  72  55 SW15      29.89R HX  96
FREMONT        CLOUDY    88  69  53 CALM      29.86S HX  92
TEKAMAH        CLOUDY    83  77  82 SE7       29.84R HX  92
WAYNE          PTCLDY    80  78  94 S3        29.85R
$$

NEZ050>053-065>068-078-088>093-220600-
SOUTHEAST NEBRASKA

CITY           SKY/WX    TMP DP  RH WIND       PRES   REMARKS
LINCOLN        MOCLDY    89  69  51 SW15      29.90R HX  93
OMAHA EPPLEY   MOCLDY    86  75  69 S12       29.87R HX  95
BEATRICE       PTCLDY    81  71  71 S14       29.92R
FALLS CITY     CLEAR     83  73  72 S13       29.92R
NEBRASKA CITY  PTCLDY    83  73  70 SW16      29.90R
PLATTSMOUTH    MOCLDY    84  73  68 S8        29.89S HX  91
$$

NEZ044-045-051>053-067-220600-
OMAHA AREA

CITY           SKY/WX    TMP DP  RH WIND       PRES   REMARKS
OMAHA EPPLEY   MOCLDY    86  75  69 S12       29.87R HX  95
BLAIR          MOCLDY    85  73  67 S13       29.87S HX  92
FREMONT        CLOUDY    88  69  53 CALM      29.86S HX  92
MILLARD        MOCLDY    86  75  70 SE8       29.87R HX  95
OFFUTT AFB     MOCLDY    81  80  99 E5        29.88R HX  91
PLATTSMOUTH    MOCLDY    84  73  68 S8        29.89S HX  91
WAHOO          FAIR      89  67  48 SW12G18   29.87R HX  92
$$


USA.gov is the U.S. government's official web portal to all federal, state and local government web resources and services.